Location: Unspecified
(0.0000°N, 0.0000°E)
Time: 09:56:24
(UTC+00:00)

Vanguard 2 Rocket - Pass Details

Date: 12 October 2022
Orbit: 555 x 3321 km, 32.9° (Epoch: 06 December)

Event Time Altitude Azimuth Distance (km) Brightness Sun altitude
Rises 04:13:16 0° 306° (NW) 4,000 - -23.1°
Reaches altitude 10° 04:16:36 10° 307° (NW) 2,671 - -22.3°
Exits shadow 04:20:45 42° 311° (NW) 1,063 6.8 -21.3°
Maximum altitude 04:22:28 83° 34° (NE) 692 6.2 -20.8°
Drops below altitude 10° 04:26:35 10° 122° (ESE) 1,887 9.5 -19.8°
Sets 04:28:35 0° 123° (ESE) 2,730 10.5 -19.3°
